1484355600.45,3664,5.94,71072.3,-13.43,-14.93,-15.01,0,*58
1484355601.66,3665,5.94,71074.5,-13.43,-15.15,-15.15,0,*53
1484355602.92,3666,5.94,71098.5,-13.43,-15.35,-15.35,0,*50
1484355604.15,3667,5.94,71100.3,-13.43,-15.35,-15.63,0,*52
1484355605.44,3668,5.94,71104.0,-13.45,-14.47,-14.75,0,*59
1484355606.71,3669,5.94,71112.8,-13.45,-14.33,-14.47,0,*5A
1484355607.94,3670,5.94,71110.0,-13.43,-14.33,-14.51,0,*53
1484355609.2,3671,5.94,71110.5,-13.45,-14.33,-14.47,0,*53
1484355610.5,3672,5.94,71112.5,-13.45,-14.47,-14.51,0,*54
1484355611.75,3673,5.94,71114.0,-13.43,-14.47,-14.65,0,*54
1484355613.04,3674,5.94,71116.3,-13.45,-14.51,-14.75,0,*53
1484355614.3,3675,5.94,71112.3,-13.45,-14.61,-14.79,0,*5D
1484355615.55,3676,5.94,71114.3,-13.45,-14.65,-14.79,0,*5A
1484355616.81,3677,5.94,71116.3,-13.45,-15.01,-15.15,0,*53
1484355618.06,3678,5.94,71114.8,-13.45,-15.07,-15.21,0,*5D
1484355619.31,3679,5.94,71118.3,-13.43,-15.01,-15.21,0,*5C
1484355620.55,3680,6.0,71120.3,-13.43,-15.07,-15.21,0,*5C
1484355621.8,3681,6.0,71120.5,-13.45,-15.07,-15.21,0,*5B
1484355623.09,3682,5.94,71122.5,-13.45,-14.51,-14.79,0,*56
1484355624.36,3683,5.94,71120.8,-13.45,-14.61,-14.79,0,*54
1484355625.64,3684,6.0,71122.3,-13.45,-14.75,-15.01,0,*58
1484355626.92,3685,5.94,71116.5,-13.49,-14.97,-15.21,0,*5B
1484355628.17,3686,5.94,71110.3,-13.45,-14.93,-15.15,0,*57
1484355629.43,3687,5.94,71102.3,-13.45,-14.93,-15.15,0,*56
1484355630.71,3688,5.94,71102.5,-13.45,-14.75,-14.93,0,*5E
1484355631.97,3689,5.94,71100.8,-13.45,-14.75,-14.89,0,*54
1484355633.23,3690,5.94,71106.0,-13.47,-14.79,-14.93,0,*59
1484355634.52,3691,5.94,71102.3,-13.49,-14.93,-14.97,0,*56
1484355635.75,3692,5.94,71102.3,-13.47,-14.89,-14.93,0,*54
1484355636.99,3693,5.94,71106.3,-13.47,-14.79,-14.65,0,*53
1484355638.23,3694,5.94,71106.5,-13.47,-14.79,-14.89,0,*56
1484355639.5,3695,5.94,71104.5,-13.45,-14.51,-14.65,0,*5D
1484355640.78,3696,5.94,71098.5,-13.45,-14.75,-14.75,0,*59
1484355642.01,3697,5.94,71094.8,-13.45,-14.89,-14.89,0,*58
1484355643.27,3698,5.94,71086.8,-13.45,-15.15,-15.01,0,*52
1484355644.53,3699,5.94,71086.8,-13.45,-15.21,-15.07,0,*52
1484355645.74,3700,5.94,71082.8,-13.47,-15.07,-15.07,0,*55
1484355646.97,3701,5.94,71078.0,-13.47,-15.07,-15.01,0,*52
1484355648.23,3702,5.94,71088.0,-13.47,-14.79,-14.79,0,*57
1484355649.52,3703,5.94,71086.0,-13.49,-14.83,-14.83,0,*58
1484355650.8,3704,5.94,71078.5,-13.49,-14.93,-14.83,0,*5E
1484355652.04,3705,5.94,71082.0,-13.47,-14.75,-14.89,0,*53
1484355653.27,3706,5.94,71080.3,-13.47,-14.65,-14.75,0,*52
1484355654.53,3707,5.94,71080.5,-13.47,-14.75,-14.75,0,*52
1484355655.81,3708,5.94,71076.0,-13.45,-14.93,-14.79,0,*5B
1484355657.06,3709,5.94,71072.3,-13.49,-15.21,-15.11,0,*51
1484355658.3,3710,5.94,71072.5,-13.47,-14.79,-14.89,0,*5B
1484355659.59,3711,5.94,71068.5,-13.49,-14.79,-14.93,0,*5F
1484355660.79,3712,5.94,71078.3,-13.47,-14.61,-14.61,0,*56
1484355662.0,3713,5.94,71082.3,-13.47,-14.65,-14.61,0,*53
1484355663.27,3714,5.94,71086.8,-13.47,-14.51,-14.51,0,*50
1484355664.5,3715,5.94,71082.5,-13.47,-14.65,-14.51,0,*56
1484355665.74,3716,6.0,71082.5,-13.47,-14.75,-14.61,0,*57
1484355666.94,3717,5.94,71086.3,-13.47,-14.65,-14.61,0,*57
1484355668.15,3718,5.94,71088.3,-13.47,-14.65,-14.61,0,*58
1484355669.39,3719,5.94,71088.0,-13.47,-14.61,-14.55,0,*5A
1484355670.64,3720,5.94,71090.0,-13.47,-14.75,-14.75,0,*57
1484355671.91,3721,5.94,71088.3,-13.47,-14.51,-14.47,0,*51
1484355673.17,3722,5.94,71088.8,-13.45,-14.75,-14.61,0,*52
1484355674.44,3723,5.94,71090.8,-13.45,-14.47,-14.37,0,*51
1484355675.68,3724,5.94,71090.8,-13.45,-14.37,-14.33,0,*55
1484355676.89,3725,5.94,71084.8,-13.47,-14.33,-14.33,0,*52
1484355678.1,3726,5.94,71084.3,-13.47,-14.37,-14.33,0,*55
1484355679.33,3727,5.94,71084.3,-13.45,-14.33,-14.33,0,*52
1484355680.57,3728,5.94,71082.0,-13.45,-14.29,-14.33,0,*56
1484355681.8,3729,5.94,71080.5,-13.45,-14.33,-14.33,0,*5C
1484355683.04,3730,5.94,71086.0,-13.45,-14.37,-14.33,0,*50
1484355684.28,3731,5.94,71084.5,-13.45,-14.37,-14.33,0,*51
1484355685.49,3732,5.94,71086.0,-13.43,-14.37,-14.37,0,*50
1484355686.72,3733,5.94,71084.3,-13.45,-14.29,-14.29,0,*57
1484355687.96,3734,5.94,71078.0,-13.45,-14.33,-14.33,0,*50
1484355689.19,3735,5.94,71086.3,-13.45,-14.33,-14.33,0,*51
1484355690.4,3736,5.94,71082.5,-13.43,-14.33,-14.33,0,*54
1484355691.61,3737,5.94,71080.0,-13.43,-14.37,-14.33,0,*51
1484355692.85,3738,5.94,71074.0,-13.45,-14.37,-14.33,0,*58
1484355694.06,3739,5.94,71078.8,-13.43,-14.33,-14.29,0,*50
1484355695.29,3740,5.94,71072.0,-13.45,-14.33,-14.29,0,*58
1484355696.5,3741,5.94,71080.3,-13.43,-14.33,-14.19,0,*5C
1484355697.71,3742,5.94,71080.8,-13.43,-14.29,-14.19,0,*54
1484355698.94,3743,5.94,71082.3,-13.45,-14.29,-14.15,0,*5F
1484355700.15,3744,5.94,71078.0,-13.43,-14.29,-14.29,0,*51
1484355701.37,3745,5.94,71078.5,-13.43,-14.15,-14.19,0,*5C
1484355702.58,3746,5.94,71076.3,-13.43,-14.29,-14.19,0,*50
1484355703.8,3747,5.94,71082.0,-13.43,-14.15,-14.15,0,*52
1484355705.0,3748,5.94,71080.8,-13.43,-14.29,-14.33,0,*56
1484355706.24,3749,5.94,71080.3,-13.45,-14.29,-14.29,0,*5A
1484355707.48,3750,6.0,71084.5,-13.41,-14.23,-14.23,0,*56
1484355708.72,3751,5.94,71086.8,-13.45,-14.29,-14.29,0,*53
1484355709.93,3752,5.94,71088.3,-13.43,-14.19,-14.29,0,*55
1484355711.14,3753,5.94,71084.8,-13.43,-14.29,-14.33,0,*5C
1484355712.38,3754,5.94,71080.5,-13.45,-14.33,-14.29,0,*5D
1484355713.59,3755,5.94,71084.8,-13.43,-14.33,-14.33,0,*51
1484355714.79,3756,5.94,71082.5,-13.43,-14.33,-14.33,0,*52
1484355716.0,3757,5.94,71076.5,-13.43,-14.29,-14.29,0,*53
1484355717.21,3758,5.94,71086.8,-13.43,-14.33,-14.33,0,*5C
1484355718.42,3759,5.94,71086.3,-13.43,-14.33,-14.33,0,*5D
1484355719.63,3760,5.94,71080.3,-13.43,-14.29,-14.33,0,*5C
1484355720.86,3761,5.94,71082.3,-13.45,-14.33,-14.33,0,*50
1484355722.07,3762,5.94,71080.3,-13.43,-14.33,-14.37,0,*51
1484355723.28,3763,5.94,71080.8,-13.43,-14.29,-14.29,0,*54
1484355724.5,3764,5.94,71086.3,-13.43,-14.15,-14.15,0,*53
1484355725.71,3765,5.94,71082.3,-13.43,-14.33,-14.33,0,*52
1484355726.91,3766,5.94,71080.8,-13.43,-14.33,-14.33,0,*51
1484355728.15,3767,5.94,71084.0,-13.45,-14.19,-14.19,0,*56
1484355729.37,3768,5.94,71084.8,-13.43,-14.19,-14.19,0,*5F
1484355730.64,3769,5.94,71084.5,-13.41,-14.01,-14.15,0,*59
1484355731.89,3770,5.94,71086.8,-13.45,-13.73,-13.87,0,*5B
1484355733.12,3771,5.94,71090.5,-13.43,-13.33,-13.43,0,*50
1484355734.39,3772,5.94,71086.5,-13.41,-13.01,-13.11,0,*57
1484355735.65,3773,5.94,71084.5,-13.41,-12.83,-12.97,0,*52
1484355736.9,3774,5.94,71082.8,-13.37,-12.83,-12.97,0,*54
1484355738.14,3775,5.94,71082.8,-13.37,-13.19,-13.23,0,*59
1484355739.38,3776,5.94,71076.0,-13.35,-13.47,-13.61,0,*55
1484355740.58,3777,5.94,71080.8,-13.35,-13.47,-13.65,0,*50
1484355741.79,3778,5.94,71086.3,-13.35,-13.47,-13.65,0,*5F
1484355743.04,3779,5.94,71088.3,-13.35,-13.61,-13.79,0,*57
1484355744.28,3780,5.94,71090.8,-13.35,-13.51,-13.79,0,*52
1484355745.51,3781,5.94,71084.0,-13.35,-13.51,-13.79,0,*53
1484355746.71,3782,5.94,71086.8,-13.35,-13.47,-13.73,0,*5D
1484355747.97,3783,5.94,71080.3,-13.33,-13.47,-13.79,0,*50
1484355749.22,3784,5.94,71086.0,-13.33,-13.47,-13.79,0,*57
1484355750.48,3785,5.94,71086.3,-13.33,-13.37,-13.65,0,*5C
1484355751.71,3786,5.94,71086.0,-13.29,-13.43,-13.55,0,*54
1484355752.97,3787,5.94,71080.3,-13.29,-13.29,-13.43,0,*5E
1484355754.23,3788,5.94,71080.0,-13.29,-13.47,-13.61,0,*59
1484355755.48,3789,5.94,71076.0,-13.29,-13.87,-14.11,0,*54
1484355756.72,3790,5.94,71078.8,-13.27,-13.87,-14.11,0,*52
1484355757.97,3791,5.94,71078.5,-13.27,-14.19,-14.47,0,*50
1484355759.19,3792,5.94,71072.8,-13.27,-14.61,-14.89,0,*5E
1484355760.43,3793,5.94,71072.8,-13.27,-14.43,-14.61,0,*59
1484355761.67,3794,5.94,71072.3,-13.29,-15.11,-15.29,0,*5B
1484355762.93,3795,5.94,71070.3,-13.29,-14.75,-15.11,0,*52
1484355764.19,3796,5.94,71078.0,-13.33,-14.65,-14.79,0,*54
1484355765.44,3797,5.94,71076.8,-13.29,-14.69,-14.97,0,*52
1484355766.7,3798,6.0,71076.0,-13.33,-14.93,-15.07,0,*5B
1484355767.94,3799,5.94,71056.5,-13.33,-14.65,-14.89,0,*54
1484355769.22,3800,5.94,71058.3,-13.33,-14.75,-14.93,0,*51
1484355770.44,3801,5.94,71050.8,-13.35,-14.61,-14.89,0,*58
1484355771.7,3802,5.94,71046.0,-13.37,-14.65,-14.83,0,*57
1484355772.91,3803,5.94,71046.5,-13.35,-14.61,-14.65,0,*58
1484355774.12,3804,5.94,71056.8,-13.35,-14.61,-14.89,0,*5D
1484355775.36,3805,5.94,71062.8,-13.35,-14.75,-14.89,0,*59
1484355776.62,3806,5.94,71066.3,-13.35,-14.79,-14.93,0,*5D
1484355777.88,3807,5.94,71062.8,-13.35,-14.79,-15.01,0,*56
1484355779.13,3808,5.94,71056.5,-13.35,-14.75,-14.93,0,*5F
1484355780.42,3809,5.94,71066.8,-13.37,-14.79,-14.97,0,*54
1484355781.66,3810,5.94,71066.8,-13.35,-14.65,-14.79,0,*53
1484355782.94,3811,6.0,71064.3,-13.37,-14.79,-14.93,0,*59
1484355784.18,3812,5.94,71070.3,-13.35,-14.55,-14.65,0,*5F
1484355785.42,3813,5.94,71086.3,-13.35,-14.51,-14.61,0,*5E
1484355786.66,3814,5.94,71098.3,-13.35,-14.61,-14.75,0,*5F
1484355787.92,3815,5.94,71098.8,-13.37,-14.51,-14.65,0,*5E
1484355789.19,3816,5.94,71096.8,-13.37,-14.43,-14.65,0,*5E
1484355790.42,3817,5.94,71102.3,-13.35,-14.65,-14.79,0,*54
1484355791.67,3818,5.94,71100.8,-13.37,-14.69,-14.93,0,*51
1484355792.94,3819,5.94,71094.8,-13.37,-14.83,-15.07,0,*58
1484355794.19,3820,5.94,71096.5,-13.37,-14.69,-14.83,0,*5B
1484355795.48,3821,5.94,71094.8,-13.37,-14.79,-14.97,0,*5E
1484355796.73,3822,5.94,71086.8,-13.37,-14.69,-14.97,0,*5C
1484355797.99,3823,5.94,71086.0,-13.37,-14.69,-14.93,0,*59
1484355799.24,3824,5.94,71086.8,-13.37,-14.93,-15.11,0,*50
1484355800.48,3825,5.94,71082.0,-13.41,-14.89,-15.11,0,*5B
1484355801.74,3826,5.94,71086.5,-13.37,-14.93,-15.07,0,*55
1484355803.0,3827,5.94,71082.5,-13.41,-14.89,-14.97,0,*56
1484355804.29,3828,5.94,71086.3,-13.41,-14.75,-14.97,0,*5A
1484355805.58,3829,5.94,71080.5,-13.41,-14.83,-15.01,0,*5C
1484355806.83,3830,5.94,71084.5,-13.37,-14.69,-14.93,0,*5B
1484355808.04,3831,5.94,71086.0,-13.43,-14.89,-15.15,0,*58
1484355809.27,3832,6.0,71088.3,-13.43,-14.93,-15.07,0,*53
1484355810.53,3833,5.94,71082.0,-13.43,-14.79,-14.93,0,*5A
1484355811.79,3834,5.94,71080.5,-13.45,-14.79,-14.89,0,*50
1484355813.05,3835,5.94,71076.3,-13.41,-14.97,-15.11,0,*55
1484355814.31,3836,5.94,71078.0,-13.41,-14.89,-15.01,0,*58
1484355815.57,3837,5.94,71074.8,-13.43,-14.79,-14.93,0,*5E
1484355816.82,3838,5.94,71078.0,-13.43,-14.93,-15.01,0,*5F
1484355818.05,3839,5.94,71078.0,-13.43,-15.01,-15.15,0,*51
1484355819.3,3840,5.94,71076.8,-13.45,-15.01,-15.15,0,*59
1484355820.56,3841,5.94,71078.8,-13.45,-15.15,-15.21,0,*5A
1484355821.82,3842,5.94,71078.0,-13.45,-14.89,-15.21,0,*5D
1484355823.08,3843,5.94,71078.8,-13.45,-14.93,-15.15,0,*50
1484355824.31,3844,5.94,71074.0,-13.45,-14.89,-15.07,0,*5F
1484355825.57,3845,5.94,71078.0,-13.45,-14.89,-14.93,0,*52
1484355826.83,3846,5.94,71064.8,-13.45,-14.61,-14.79,0,*53
1484355828.07,3847,5.94,71068.5,-13.45,-14.61,-14.89,0,*5D
1484355829.31,3848,5.94,71072.5,-13.45,-14.61,-14.89,0,*52
1484355830.55,3849,5.94,71068.8,-13.47,-14.47,-14.61,0,*53
1484355831.8,3850,5.94,71056.3,-13.47,-14.47,-14.65,0,*5F
1484355833.06,3851,5.94,71058.5,-13.49,-14.65,-14.79,0,*5D
1484355834.29,3852,5.94,71056.0,-13.47,-14.61,-14.75,0,*58
1484355835.54,3853,5.94,71062.3,-13.47,-14.47,-14.65,0,*5C
1484355836.81,3854,5.94,71066.0,-13.47,-14.47,-14.51,0,*5C
1484355838.04,3855,5.94,71062.0,-13.47,-14.61,-14.75,0,*5F
1484355839.28,3856,5.94,71060.3,-13.47,-14.75,-14.89,0,*5A
1484355840.54,3857,5.94,71066.0,-13.47,-14.79,-15.01,0,*56
1484355841.78,3858,6.0,71068.5,-13.47,-15.21,-15.29,0,*5F
1484355843.04,3859,5.94,71074.3,-13.49,-15.25,-15.39,0,*55
1484355844.28,3860,5.94,71048.3,-13.49,-15.07,-15.11,0,*55
1484355845.53,3861,6.0,71050.8,-13.49,-14.97,-15.07,0,*5B
1484355846.79,3862,5.94,71042.0,-13.49,-15.07,-15.21,0,*54
1484355848.07,3863,5.94,71024.0,-13.49,-15.21,-15.21,0,*51
1484355849.36,3864,5.94,71012.8,-13.49,-14.83,-14.97,0,*53
1484355850.62,3865,5.94,71020.5,-13.49,-14.69,-14.83,0,*53
1484355851.87,3866,5.94,71018.3,-13.49,-14.65,-14.79,0,*59
1484355853.11,3867,5.94,71040.8,-13.47,-14.65,-14.75,0,*5A
1484355854.37,3868,5.94,71060.0,-13.49,-14.55,-14.65,0,*59
1484355855.66,3869,5.94,71080.0,-13.49,-14.51,-14.51,0,*5B
1484355856.93,3870,5.94,71076.5,-13.49,-14.51,-14.65,0,*54
1484355858.19,3871,5.94,71074.0,-13.49,-14.37,-14.43,0,*51
1484355859.43,3872,5.94,71082.3,-13.49,-14.23,-14.23,0,*51
1484355860.65,3873,5.94,71068.5,-13.47,-15.15,-15.15,0,*5E
1484355861.93,3874,5.94,71058.3,-13.49,-15.39,-15.57,0,*5F
1484355863.17,3875,5.94,71054.3,-13.49,-15.07,-15.25,0,*56
1484355864.43,3876,5.94,71026.0,-13.53,-14.93,-15.07,0,*52
1484355865.69,3877,5.94,71028.3,-13.53,-15.07,-15.21,0,*5B
1484355866.96,3878,5.94,71060.5,-13.53,-15.21,-15.21,0,*50
1484355868.26,3879,6.0,71076.0,-13.53,-14.83,-14.97,0,*54
1484355869.51,3880,5.94,71070.5,-13.53,-14.93,-15.07,0,*5B
1484355870.8,3881,5.94,71080.5,-13.53,-14.79,-14.97,0,*56
1484355872.08,3882,5.94,71082.0,-13.53,-14.93,-15.21,0,*5D
1484355873.31,3883,5.94,71090.0,-13.55,-15.01,-15.29,0,*58
1484355874.53,3884,5.94,71094.0,-13.55,-14.89,-15.25,0,*52
1484355875.79,3885,5.94,71110.3,-13.55,-14.83,-15.01,0,*5F
1484355877.04,3886,5.94,71100.3,-13.55,-14.75,-15.01,0,*55
1484355878.27,3887,5.94,71096.8,-13.55,-14.69,-14.97,0,*57
1484355879.5,3888,5.94,71096.3,-13.55,-14.55,-14.69,0,*56
1484355880.8,3889,5.94,71100.8,-13.53,-14.51,-14.79,0,*54
1484355882.04,3890,5.94,71098.3,-13.55,-14.83,-15.15,0,*5E
1484355883.28,3891,5.94,71104.5,-13.57,-14.89,-15.15,0,*57
1484355884.49,3892,6.0,71110.8,-13.55,-14.89,-15.11,0,*52
1484355885.76,3893,5.94,71108.0,-13.57,-14.83,-15.15,0,*5F
1484355887.03,3894,5.94,71114.8,-13.57,-14.83,-15.15,0,*58
1484355888.33,3895,5.94,71110.0,-13.57,-14.47,-14.55,0,*54
1484355889.62,3896,5.94,71104.8,-13.57,-14.15,-14.47,0,*53
1484355890.86,3897,5.94,71104.5,-13.57,-14.37,-14.61,0,*56
1484355892.13,3898,5.94,71096.5,-13.55,-14.47,-14.83,0,*50
1484355893.34,3899,6.0,71104.0,-13.55,-14.37,-14.61,0,*5A
1484355894.58,3900,5.94,71100.3,-13.55,-14.01,-14.37,0,*5D
1484355895.79,3901,5.94,71100.8,-13.55,-14.11,-14.37,0,*5D
1484355897.07,3902,5.94,71098.8,-13.57,-14.23,-14.47,0,*5A
1484355898.31,3903,5.94,71102.5,-13.55,-14.01,-14.37,0,*5E
1484355899.54,3904,5.94,71108.8,-13.55,-14.11,-14.43,0,*5B
1484355900.79,3905,5.94,71106.8,-13.55,-14.23,-14.47,0,*5F
1484355902.02,3906,5.94,71108.3,-13.53,-14.37,-14.69,0,*53
1484355903.26,3907,5.94,71112.8,-13.53,-14.33,-14.65,0,*5A
1484355904.52,3908,5.94,71118.5,-13.53,-14.37,-14.43,0,*55
1484355905.78,3909,5.94,71110.8,-13.55,-14.47,-14.75,0,*50
1484355907.01,3910,5.94,71106.5,-13.55,-14.69,-14.97,0,*58
1484355908.23,3911,5.94,71104.3,-13.55,-14.89,-15.25,0,*5F
1484355909.48,3912,5.94,71112.5,-13.53,-14.69,-14.97,0,*5C
1484355910.74,3913,5.94,71116.8,-13.53,-14.65,-14.83,0,*54
1484355911.99,3914,5.94,71130.5,-13.53,-14.69,-15.01,0,*54
1484355913.25,3915,5.94,71128.8,-13.53,-14.69,-14.97,0,*5B
1484355914.51,3916,5.94,71124.5,-13.53,-14.83,-15.07,0,*54
1484355915.72,3917,5.94,71126.5,-13.55,-14.89,-15.15,0,*5A
1484355916.96,3918,5.94,71122.0,-13.55,-14.83,-15.11,0,*5B
1484355918.22,3919,5.94,71116.0,-13.55,-14.75,-15.01,0,*52
1484355919.42,3920,5.94,71118.3,-13.55,-14.69,-15.11,0,*54
1484355920.69,3921,5.94,71118.0,-13.57,-14.83,-15.11,0,*53
1484355921.97,3922,5.94,71114.3,-13.53,-14.97,-15.21,0,*52
1484355923.18,3923,5.94,71100.8,-13.55,-15.11,-15.25,0,*5E
1484355924.41,3924,5.94,71098.8,-13.55,-15.01,-15.29,0,*54
1484355925.62,3925,5.94,71096.8,-13.55,-15.11,-15.29,0,*54
1484355926.88,3926,5.94,71092.5,-13.57,-14.97,-15.11,0,*51
1484355928.15,3927,5.94,71092.5,-13.57,-14.97,-15.15,0,*54
1484355929.37,3928,5.94,71086.0,-13.59,-15.15,-15.29,0,*51
1484355930.58,3929,5.94,71092.8,-13.55,-14.89,-15.15,0,*57
1484355931.82,3930,5.94,71098.3,-13.57,-14.89,-15.11,0,*59
1484355933.03,3931,5.94,71100.5,-13.59,-14.89,-15.07,0,*51
1484355934.33,3932,5.94,71100.0,-13.57,-14.83,-14.97,0,*5E
1484355935.63,3933,5.94,71098.5,-13.57,-14.83,-14.97,0,*5F
1484355936.92,3934,5.94,71092.3,-13.57,-14.75,-14.97,0,*51
1484355938.19,3935,5.94,71092.8,-13.57,-14.75,-14.89,0,*5F
1484355939.43,3936,5.94,71102.3,-13.57,-14.69,-14.89,0,*51
1484355940.68,3937,5.94,71108.5,-13.55,-14.75,-14.83,0,*55
1484355941.92,3938,5.94,71106.8,-13.55,-14.75,-14.89,0,*50
1484355943.18,3939,5.94,71104.3,-13.55,-14.75,-14.83,0,*5B
1484355944.37,3940,5.94,71102.8,-13.55,-14.69,-14.69,0,*5C
1484355945.58,3941,5.94,71098.0,-13.55,-14.69,-14.89,0,*53
1484355946.8,3942,5.94,71092.3,-13.55,-14.69,-14.75,0,*53
1484355948.03,3943,5.94,71088.8,-13.55,-14.75,-14.89,0,*5C
1484355949.26,3944,5.94,71082.8,-13.53,-14.69,-14.69,0,*5E
1484355950.51,3945,5.94,71084.5,-13.55,-14.75,-14.75,0,*59
1484355951.77,3946,5.94,71092.8,-13.55,-14.75,-14.83,0,*53
1484355953.06,3947,5.94,71094.3,-13.53,-14.83,-14.83,0,*5D
1484355954.33,3948,5.94,71098.8,-13.55,-14.83,-14.83,0,*54
1484355955.56,3949,5.94,71100.3,-13.55,-14.75,-14.89,0,*56
1484355956.81,3950,5.94,71100.5,-13.55,-14.75,-14.75,0,*5D
1484355958.05,3951,5.94,71104.0,-13.55,-14.61,-14.55,0,*5B
1484355959.25,3952,5.94,71108.3,-13.55,-14.69,-14.65,0,*53
1484355960.51,3953,5.94,71114.3,-13.55,-14.55,-14.55,0,*5E
1484355961.72,3954,5.94,71108.3,-13.55,-14.61,-14.61,0,*59
1484355962.99,3955,5.94,71112.3,-13.55,-14.47,-14.47,0,*58
1484355964.26,3956,5.94,71112.3,-13.55,-14.47,-14.47,0,*5B
1484355965.49,3957,5.94,71114.0,-13.55,-14.37,-14.43,0,*59
1484355966.75,3958,5.94,71112.5,-13.55,-14.43,-14.43,0,*55
1484355967.96,3959,5.94,71112.0,-13.55,-14.23,-14.29,0,*5E
1484355969.17,3960,5.94,71114.5,-13.55,-14.11,-14.15,0,*5A
1484355970.41,3961,5.94,71110.5,-13.55,-14.01,-14.11,0,*5E
1484355971.62,3962,5.94,71118.5,-13.55,-14.15,-14.11,0,*58
1484355972.88,3963,5.94,71112.8,-13.53,-13.93,-13.97,0,*5F
1484355974.16,3964,5.94,71116.3,-13.53,-13.79,-13.83,0,*59
1484355975.43,3965,5.94,71114.0,-13.53,-14.05,-14.19,0,*50
1484355976.69,3966,5.94,71112.8,-13.53,-14.37,-14.43,0,*5D
1484355977.94,3967,5.94,71118.8,-13.53,-14.37,-14.43,0,*5C
1484355979.18,3968,5.94,71122.5,-13.53,-14.23,-14.37,0,*55
1484355980.45,3969,5.94,71112.8,-13.53,-14.05,-14.33,0,*54
1484355981.67,3970,5.94,71116.8,-13.55,-14.15,-14.37,0,*5F
1484355982.93,3971,5.94,71120.0,-13.53,-14.05,-14.33,0,*5D
1484355984.17,3972,5.94,71120.3,-13.53,-14.11,-14.33,0,*5B
1484355985.41,3973,5.94,71122.5,-13.53,-14.19,-14.37,0,*56
1484355986.65,3974,5.94,71120.5,-13.53,-14.19,-14.37,0,*51
1484355987.89,3975,5.94,71120.5,-13.49,-14.19,-14.37,0,*5B
1484355989.16,3976,5.94,71118.3,-13.49,-14.05,-14.23,0,*50
1484355990.38,3977,5.94,71118.0,-13.47,-14.19,-14.33,0,*53
1484355991.64,3978,5.94,71122.5,-13.49,-14.43,-14.65,0,*5E
1484355992.9,3979,5.94,71120.8,-13.49,-14.33,-14.43,0,*5C
1484355994.15,3980,5.94,71118.5,-13.49,-14.33,-14.43,0,*5A
1484355995.37,3981,5.94,71116.5,-13.47,-14.15,-14.37,0,*52
1484355996.61,3982,5.94,71122.3,-13.49,-14.11,-14.37,0,*5B
1484355997.87,3983,5.94,71124.8,-13.49,-14.33,-14.43,0,*59
1484355999.13,3984,5.94,71130.5,-13.49,-14.37,-14.51,0,*59
1484356000.39,3985,5.94,71128.8,-13.49,-14.23,-14.43,0,*5E
1484356001.65,3986,5.94,71128.5,-13.49,-14.19,-14.43,0,*54
1484356002.91,3987,5.94,71130.5,-13.49,-14.23,-14.43,0,*5C
1484356004.17,3988,5.94,71128.8,-13.49,-14.19,-14.43,0,*5A
1484356005.42,3989,5.94,71126.0,-13.49,-14.19,-14.33,0,*5C
1484356006.63,3990,5.94,71122.3,-13.47,-14.19,-14.33,0,*5A
1484356007.87,3991,5.94,71120.8,-13.47,-14.33,-14.47,0,*50
1484356009.08,3992,5.94,71124.5,-13.47,-14.29,-14.37,0,*5F
1484356010.29,3993,5.94,71116.5,-13.47,-14.33,-14.37,0,*55
1484356011.56,3994,5.94,71120.8,-13.47,-14.47,-14.75,0,*57
1484356012.82,3995,5.94,71122.5,-13.49,-14.65,-14.79,0,*54
1484356014.09,3996,5.94,71126.0,-13.47,-14.47,-14.75,0,*55
1484356015.38,3997,5.94,71122.5,-13.49,-14.43,-14.79,0,*52
1484356016.64,3998,5.94,71126.5,-13.47,-14.43,-14.75,0,*5F
1484356017.88,3999,5.94,71126.8,-13.47,-14.37,-14.75,0,*5D
1484356019.14,4000,5.94,71130.0,-13.49,-14.19,-14.51,0,*57
1484356020.43,4001,5.94,71130.8,-13.49,-14.51,-14.93,0,*54
1484356021.68,4002,5.94,71132.0,-13.47,-14.51,-14.89,0,*52
1484356022.95,4003,5.94,71132.0,-13.49,-14.83,-15.07,0,*55
1484356024.23,4004,5.94,71126.8,-13.49,-14.93,-14.97,0,*5B
1484356025.52,4005,5.94,71122.8,-13.49,-14.83,-14.97,0,*5B
1484356026.81,4006,5.94,71116.0,-13.49,-14.79,-14.97,0,*5D
1484356028.04,4007,5.94,71116.5,-13.49,-14.65,-14.69,0,*50
1484356029.29,4008,5.94,71112.8,-13.49,-14.69,-14.83,0,*57
1484356030.55,4009,5.94,71106.5,-13.49,-14.97,-15.07,0,*5A
1484356031.83,4010,5.94,71108.5,-13.49,-14.97,-14.97,0,*5A
1484356033.06,4011,5.94,71108.5,-13.49,-15.11,-15.11,0,*5B
1484356034.33,4012,5.94,71108.5,-13.53,-15.21,-15.21,0,*53
1484356035.55,4013,5.94,71110.8,-13.55,-15.25,-15.25,0,*54
1484356036.83,4014,5.94,71106.8,-13.53,-15.21,-15.21,0,*55
1484356038.11,4015,5.94,71104.8,-13.53,-15.21,-15.35,0,*51
1484356039.39,4016,5.94,71100.5,-13.53,-15.21,-15.39,0,*5E
1484356040.63,4017,5.94,71098.3,-13.55,-15.25,-15.39,0,*5D
1484356041.85,4018,5.94,71102.5,-13.55,-15.25,-15.29,0,*53
1484356043.06,4019,5.94,71104.8,-13.55,-15.11,-15.15,0,*5A
1484356044.35,4020,5.94,71106.3,-13.57,-14.75,-15.01,0,*54
1484356045.61,4021,5.94,71106.5,-13.57,-14.97,-15.25,0,*5F
1484356046.82,4022,5.94,71108.8,-13.59,-14.89,-15.07,0,*5D
1484356048.12,4023,5.94,71114.8,-13.57,-14.47,-14.75,0,*54
1484356049.36,4024,5.94,71114.5,-13.59,-15.01,-15.29,0,*56
1484356050.6,4025,5.94,71118.3,-13.59,-15.07,-15.35,0,*5C
1484356051.85,4026,5.94,71110.8,-13.59,-15.21,-15.35,0,*5B
1484356053.08,4027,5.94,71112.8,-13.59,-14.93,-15.15,0,*50
1484356054.32,4028,5.94,71108.5,-13.59,-14.43,-14.61,0,*50
1484356055.54,4029,5.94,71106.5,-13.59,-14.15,-14.33,0,*55
1484356056.79,4030,5.94,71108.8,-13.59,-14.29,-14.47,0,*51
1484356058.03,4031,5.94,71104.5,-13.59,-14.75,-14.89,0,*5B
1484356059.26,4032,5.94,71102.8,-13.59,-14.75,-14.89,0,*58
1484356060.5,4033,5.94,71098.8,-13.57,-14.69,-14.89,0,*5A
1484356061.76,4034,5.94,71106.5,-13.59,-14.75,-14.93,0,*55
1484356063.0,4035,5.94,71118.3,-13.59,-14.89,-14.93,0,*57
1484356064.23,4036,5.94,71130.0,-13.59,-14.93,-15.07,0,*53
1484356065.44,4037,5.94,71124.5,-13.59,-14.65,-14.89,0,*5C
1484356066.71,4038,5.94,71124.8,-13.59,-14.51,-14.79,0,*5B
1484356067.97,4039,5.94,71126.5,-13.59,-14.79,-15.01,0,*5E
1484356069.23,4040,5.94,71114.5,-13.57,-14.69,-14.83,0,*54
1484356070.45,4041,5.94,71114.0,-13.59,-14.61,-14.89,0,*59
1484356071.68,4042,5.94,71112.5,-13.59,-14.61,-14.93,0,*51
1484356072.89,4043,5.94,71116.0,-13.59,-14.65,-14.89,0,*5F
1484356074.14,4044,5.94,71112.8,-13.59,-14.51,-14.65,0,*5D
1484356075.35,4045,5.94,71110.3,-13.59,-14.61,-14.65,0,*5F
1484356076.59,4046,5.94,71100.8,-13.59,-14.65,-14.93,0,*51
1484356077.85,4047,5.94,71096.3,-13.59,-14.79,-14.93,0,*5D
1484356079.08,4048,5.94,71094.0,-13.59,-15.07,-15.35,0,*57
1484356080.36,4049,5.94,71092.5,-13.61,-14.93,-15.21,0,*54
1484356081.6,4050,5.94,71092.0,-13.59,-14.75,-15.07,0,*5B
1484356082.86,4051,5.94,71102.0,-13.59,-14.75,-15.01,0,*5C
1484356084.11,4052,5.94,71096.8,-13.59,-15.21,-15.35,0,*58
1484356085.35,4053,5.94,71098.8,-13.59,-15.35,-15.53,0,*5C
1484356086.6,4054,5.94,71086.0,-13.59,-15.35,-15.53,0,*5B
1484356087.83,4055,5.94,71090.5,-13.61,-15.49,-15.67,0,*5D
1484356089.11,4056,5.94,71080.8,-13.61,-15.35,-15.35,0,*52
1484356090.36,4057,5.94,71082.8,-13.61,-15.15,-15.29,0,*5C
1484356091.61,4058,5.94,71082.5,-13.63,-15.21,-15.21,0,*5E
1484356092.87,4059,5.94,71080.0,-13.63,-15.21,-15.21,0,*5F
1484356094.1,4060,5.94,71090.0,-13.63,-14.93,-15.11,0,*5E
1484356095.33,4061,5.94,71096.3,-13.63,-15.11,-15.35,0,*52
1484356096.58,4062,5.94,71088.8,-13.63,-15.21,-15.35,0,*52
1484356097.81,4063,5.94,71086.8,-13.65,-15.11,-15.35,0,*56
1484356099.06,4064,5.94,71086.5,-13.65,-15.25,-15.39,0,*5A
1484356100.33,4065,5.94,71086.8,-13.65,-14.83,-14.97,0,*53
1484356101.59,4066,5.94,71090.8,-13.67,-14.75,-14.89,0,*54
1484356102.84,4067,5.94,71100.0,-13.67,-14.89,-14.97,0,*59
1484356104.05,4068,5.94,71110.5,-13.65,-14.65,-14.69,0,*57
1484356105.29,4069,5.94,71112.0,-13.65,-14.47,-14.37,0,*5D
1484356106.5,4070,5.94,71114.8,-13.65,-14.33,-14.33,0,*52